Terminal Aerodrome Forecast
Issued by NWS

Home | Current Version | Previous Version | Text Only | Print | Product List | Glossary On
Versions: 1 2 3 4 5 6 7 8 9 10 11 12 13 14 15 16
000
FTUS43 KTOP 271700
TAFMHK
TAF
KMHK 271723Z 2718/2818 16008KT P6SM SKC
     FM280600 19008KT P6SM SCT110
     FM281400 21012KT P6SM SKC=

USA.gov is the U.S. government's official web portal to all federal, state and local government web resources and services.